Location: Holyhead Bay
(53.3667°N, 4.6667°W)
Time: 19:50:19
(UTC+00:00)

Cosmos 1743 Rocket - Pass Details

Date: 24 November 2020
Orbit: 603 x 634 km, 82.6° (Epoch: 17 January)

Event Time Altitude Azimuth Distance (km) Brightness Sun altitude
Rises 16:46:44 0° 351° (N) 2,946 6.8 -5.5°
Reaches altitude 10° 16:49:03 10° 357° (N) 2,032 6.0 -5.8°
Maximum altitude 16:53:27 51° 74° (ENE) 798 3.8 -6.4°
Drops below altitude 10° 16:57:48 10° 151° (SSE) 2,007 6.2 -7.0°
Sets 17:00:04 0° 156° (SSE) 2,906 7.0 -7.3°
